Location: Bratsk-Energetik
(56.3300°N, 101.7600°E)
Time: 13:22:31
(UTC+08:00)

ISS - Pass Details

Date: 28 May 2017
Orbit: 401 x 408 km, 51.6° (Epoch: 27 June)

Event Time Altitude Azimuth Distance (km) Brightness Sun altitude
Rises 01:25:58 0° 268° (W) 2,339 0.0 -12.2°
Reaches altitude 10° 01:28:14 10° 257° (WSW) 1,475 -1.2 -12.2°
Maximum altitude 01:31:07 28° 196° (SSW) 803 -2.9 -12.1°
Enters shadow 01:33:44 11° 138° (SE) 1,383 -1.5 -12.1°
